Flag for Venezuela Weather past 2 weeks in Maracay, Venezuela

Now
73 °F

Passing clouds.


Feels Like: 70 °F
Forecast: 71 / 90 °F
Wind: No wind

Location: Maracay-B. A. Sucre

Current Time: Oct 20, 2014 at 12:18:29 AM

Latest Report: Oct 19, 2014 at 10:30 PM


Visibility: N/A

Pressure: 30.04 "Hg

Humidity: 94%

Dew point: 72 °F

Location of MaracayLocation

Historic Weather in Maracay — Graph

°F

Maracay temperature yesterday

Maximum temperature yesterday: 88 °F (at 12:30 PM)
Minimum temperature yesterday: 72 °F (at 4:30 AM)
Average temperature yesterday: 78 °F

Past Weeks' High & Low Weather Summary

 TemperatureHumidityPressure
High90 °F (Oct 12, 1:30 PM)100% (Oct 4, 10:30 PM)30.09 "Hg (Oct 4, 10:30 PM)
Low70 °F (Oct 12, 4:30 AM)49% (Oct 17, 12:30 PM)29.83 "Hg (Oct 16, 7:30 AM)
Average79 °F84%29.97 "Hg
* Reported Oct 4 10:30 PM — Oct 19 10:30 PM, Maracay, Weather by CustomWeather, © 2014

Note: Actual official high and low records may vary slightly from our data, if they occured in-between our weather recording intervals... More about our weather records

Advertising

Maracay weather history for previous 24 hours

 ConditionsComfort  
Time TempWeatherWind HumidityBarometerVisibility
10:30 PM
Oct 19
73 °FPassing clouds.No wind94%30.04 "HgN/A
9:30 PM75 °FPassing clouds.No wind89%30.01 "HgN/A
8:30 PM75 °FPassing clouds.2 mph89%29.98 "HgN/A
7:30 PM77 °FPassing clouds.No wind79%29.95 "HgN/A
6:30 PM77 °FPassing clouds.3 mph79%29.92 "HgN/A
5:30 PM79 °FPassing clouds.2 mph70%29.92 "HgN/A
4:30 PM81 °FPartly sunny.5 mph62%29.92 "HgN/A
3:30 PM84 °FPartly sunny.5 mph66%29.89 "HgN/A
2:30 PM86 °FScattered clouds.7 mph59%29.92 "HgN/A
1:30 PM88 °FScattered clouds.7 mph55%29.95 "HgN/A
12:30 PM88 °FScattered clouds.5 mph55%29.98 "HgN/A
11:30 AM84 °FScattered clouds.3 mph58%30.01 "HgN/A
10:30 AM82 °FPartly sunny.3 mph79%30.04 "HgN/A
9:30 AM79 °FPartly sunny.No wind84%30.04 "HgN/A
8:30 AM75 °FOvercast.No wind100%30.04 "HgN/A
7:30 AM72 °FOvercast.No wind100%30.04 "HgN/A
6:30 AM72 °FOvercast.2 mph100%30.01 "HgN/A
5:30 AM72 °FPartly sunny.No wind100%30.04 "HgN/A
4:30 AM72 °FPassing clouds.No wind100%30.01 "HgN/A
1:30 AM73 °FPassing clouds.No wind100%30.04 "HgN/A
Weather by CustomWeather, © 2014

See weather overviewHow to use our weather pages